Time,TemperatureF,DewpointF,PressureIn,WindDirection,WindDirectionDegrees,WindSpeedMPH,WindSpeedGustMPH,Humidity,HourlyPrecipIn,Conditions,Clouds,dailyrainin,SoftwareType,DateUTC
2013-08-17 00:01:00,63.9,57.3,29.84,SW,230,0.0,0.0,79,0.00,,---,0.00,VWS V14.01,2013-08-17 07:01:00,
2013-08-17 00:11:00,63.5,56.9,29.84,SW,230,0.0,0.0,79,0.00,,---,0.00,VWS V14.01,2013-08-17 07:11:00,
2013-08-17 00:21:00,63.2,56.6,29.84,SW,230,0.0,0.0,79,0.00,,---,0.00,VWS V14.01,2013-08-17 07:21:00,
2013-08-17 00:31:00,63.1,56.8,29.84,SW,230,0.0,0.0,80,0.00,,---,0.00,VWS V14.01,2013-08-17 07:31:00,
2013-08-17 00:36:00,62.7,56.5,29.84,SW,230,0.0,0.0,80,0.00,,---,0.00,VWS V14.01,2013-08-17 07:36:00,
2013-08-17 00:41:00,62.6,56.3,29.84,SW,230,0.0,0.0,80,0.00,,---,0.00,VWS V14.01,2013-08-17 07:41:00,
2013-08-17 00:46:00,62.4,56.2,29.84,SW,230,0.0,0.0,80,0.00,,---,0.00,VWS V14.01,2013-08-17 07:46:00,
2013-08-17 00:56:00,62.3,56.1,29.84,SW,230,0.0,0.0,80,0.00,,---,0.00,VWS V14.01,2013-08-17 07:56:00,
2013-08-17 01:01:00,62.3,56.4,29.84,SW,230,0.0,0.0,81,0.00,,---,0.00,VWS V14.01,2013-08-17 08:01:00,
2013-08-17 01:06:00,62.1,56.2,29.84,SW,230,0.0,0.0,81,0.00,,---,0.00,VWS V14.01,2013-08-17 08:06:00,
2013-08-17 01:11:00,62.1,56.2,29.84,SW,230,0.0,0.0,81,0.00,,---,0.00,VWS V14.01,2013-08-17 08:11:00,
2013-08-17 01:21:00,62.0,56.1,29.84,SW,230,0.0,0.0,81,0.00,,---,0.00,VWS V14.01,2013-08-17 08:21:00,
2013-08-17 01:31:00,61.6,55.7,29.84,SW,230,0.0,0.0,81,0.00,,---,0.00,VWS V14.01,2013-08-17 08:31:00,
2013-08-17 01:36:00,61.5,56.0,29.84,SW,230,0.0,0.0,82,0.00,,---,0.00,VWS V14.01,2013-08-17 08:36:00,
2013-08-17 01:41:00,61.5,56.0,29.84,SW,230,0.0,0.0,82,0.00,,---,0.00,VWS V14.01,2013-08-17 08:41:00,
2013-08-17 01:46:00,61.3,55.8,29.84,SW,230,0.0,0.0,82,0.00,,---,0.00,VWS V14.01,2013-08-17 08:46:00,
2013-08-17 01:56:00,61.2,55.7,29.84,SW,230,0.0,0.0,82,0.00,,---,0.00,VWS V14.01,2013-08-17 08:56:00,
2013-08-17 02:06:00,61.0,55.5,29.84,SW,230,0.0,0.0,82,0.00,,---,0.00,VWS V14.01,2013-08-17 09:06:00,
2013-08-17 02:16:00,60.9,55.7,29.84,SW,230,0.0,0.0,83,0.00,,---,0.00,VWS V14.01,2013-08-17 09:16:00,
2013-08-17 02:21:00,60.7,55.5,29.84,SW,230,0.0,0.0,83,0.00,,---,0.00,VWS V14.01,2013-08-17 09:21:00,
2013-08-17 02:26:00,60.7,55.5,29.84,SW,230,0.0,0.0,83,0.00,,---,0.00,VWS V14.01,2013-08-17 09:26:00,
2013-08-17 02:36:00,60.5,55.3,29.83,SW,230,0.0,0.0,83,0.00,,---,0.00,VWS V14.01,2013-08-17 09:36:00,
2013-08-17 02:41:00,60.5,55.3,29.83,SW,230,0.0,0.0,83,0.00,,---,0.00,VWS V14.01,2013-08-17 09:41:00,
2013-08-17 02:51:00,60.4,55.5,29.83,SW,230,0.0,0.0,84,0.00,,---,0.00,VWS V14.01,2013-08-17 09:51:00,
2013-08-17 03:01:00,60.1,55.3,29.83,SW,230,0.0,0.0,84,0.00,,---,0.00,VWS V14.01,2013-08-17 10:01:00,
2013-08-17 03:06:00,60.1,55.3,29.83,SW,230,0.0,0.0,84,0.00,,---,0.00,VWS V14.01,2013-08-17 10:06:00,
2013-08-17 03:11:00,59.9,55.1,29.83,SW,230,0.0,0.0,84,0.00,,---,0.00,VWS V14.01,2013-08-17 10:11:00,
2013-08-17 03:16:00,59.9,55.1,29.83,SW,230,0.0,0.0,84,0.00,,---,0.00,VWS V14.01,2013-08-17 10:16:00,
2013-08-17 03:21:00,59.8,55.0,29.83,SW,230,0.0,0.0,84,0.00,,---,0.00,VWS V14.01,2013-08-17 10:21:00,
2013-08-17 03:31:00,59.6,54.8,29.83,SW,230,0.0,0.0,84,0.00,,---,0.00,VWS V14.01,2013-08-17 10:31:00,
2013-08-17 03:36:00,59.5,54.7,29.83,SW,230,0.0,0.0,84,0.00,,---,0.00,VWS V14.01,2013-08-17 10:36:00,
2013-08-17 03:46:00,59.3,54.5,29.83,SW,230,0.0,0.0,84,0.00,,---,0.00,VWS V14.01,2013-08-17 10:46:00,
2013-08-17 03:51:00,59.2,54.4,29.83,SW,230,0.0,0.0,84,0.00,,---,0.00,VWS V14.01,2013-08-17 10:51:00,
2013-08-17 03:56:00,59.0,54.2,29.83,SW,230,0.0,0.0,84,0.00,,---,0.00,VWS V14.01,2013-08-17 10:56:00,
2013-08-17 04:06:00,58.9,54.4,29.83,SW,230,0.0,0.0,85,0.00,,---,0.00,VWS V14.01,2013-08-17 11:06:00,
2013-08-17 04:11:00,58.9,54.4,29.83,SW,230,0.0,0.0,85,0.00,,---,0.00,VWS V14.01,2013-08-17 11:11:00,
2013-08-17 04:21:00,58.7,54.2,29.84,SW,230,0.0,0.0,85,0.00,,---,0.00,VWS V14.01,2013-08-17 11:21:00,
2013-08-17 04:31:00,58.4,53.9,29.84,SW,230,0.0,0.0,85,0.00,,---,0.00,VWS V14.01,2013-08-17 11:31:00,
2013-08-17 04:36:00,58.4,53.9,29.84,SW,230,0.0,0.0,85,0.00,,---,0.00,VWS V14.01,2013-08-17 11:36:00,
2013-08-17 04:41:00,58.3,53.8,29.84,SW,230,0.0,0.0,85,0.00,,---,0.00,VWS V14.01,2013-08-17 11:41:00,
2013-08-17 04:46:00,58.1,53.6,29.84,SW,230,0.0,0.0,85,0.00,,---,0.00,VWS V14.01,2013-08-17 11:46:00,
2013-08-17 04:51:00,58.1,53.6,29.84,SW,230,0.0,0.0,85,0.00,,---,0.00,VWS V14.01,2013-08-17 11:51:00,
2013-08-17 04:56:00,58.0,53.5,29.84,SW,230,0.0,0.0,85,0.00,,---,0.00,VWS V14.01,2013-08-17 11:56:00,
2013-08-17 05:01:00,57.8,53.3,29.84,SW,230,0.0,0.0,85,0.00,,---,0.00,VWS V14.01,2013-08-17 12:01:00,
2013-08-17 05:06:00,57.8,53.7,29.84,SW,230,0.0,0.0,86,0.00,,---,0.00,VWS V14.01,2013-08-17 12:06:00,
2013-08-17 05:16:00,57.6,53.5,29.84,SW,230,0.0,0.0,86,0.00,,---,0.00,VWS V14.01,2013-08-17 12:16:00,
2013-08-17 05:26:00,57.6,53.5,29.84,SW,230,0.0,0.0,86,0.00,,---,0.00,VWS V14.01,2013-08-17 12:26:00,
2013-08-17 05:31:00,57.5,53.3,29.84,SW,230,0.0,0.0,86,0.00,,---,0.00,VWS V14.01,2013-08-17 12:31:00,
2013-08-17 05:36:00,57.3,53.2,29.84,SW,230,0.0,0.0,86,0.00,,---,0.00,VWS V14.01,2013-08-17 12:36:00,
2013-08-17 05:46:00,57.2,53.4,29.84,SW,230,0.0,0.0,87,0.00,,---,0.00,VWS V14.01,2013-08-17 12:46:00,
2013-08-17 05:51:00,57.2,53.4,29.84,SW,230,0.0,0.0,87,0.00,,---,0.00,VWS V14.01,2013-08-17 12:51:00,
2013-08-17 05:56:00,57.2,53.4,29.84,SW,230,0.0,0.0,87,0.00,,---,0.00,VWS V14.01,2013-08-17 12:56:00,
2013-08-17 06:01:00,57.2,53.4,29.84,SW,230,0.0,0.0,87,0.00,,---,0.00,VWS V14.01,2013-08-17 13:01:00,
2013-08-17 06:11:00,57.2,53.7,29.84,SW,230,0.0,0.0,88,0.00,,---,0.00,VWS V14.01,2013-08-17 13:11:00,
2013-08-17 06:16:00,57.3,53.8,29.85,SW,230,0.0,0.0,88,0.00,,---,0.00,VWS V14.01,2013-08-17 13:16:00,
2013-08-17 06:26:00,57.3,53.8,29.85,SW,230,0.0,0.0,88,0.00,,---,0.00,VWS V14.01,2013-08-17 13:26:00,
2013-08-17 06:36:00,57.5,54.3,29.85,SW,230,0.0,0.0,89,0.00,,---,0.00,VWS V14.01,2013-08-17 13:36:00,
2013-08-17 06:41:00,57.3,54.1,29.85,SW,230,0.0,0.0,89,0.00,,---,0.00,VWS V14.01,2013-08-17 13:41:00,
2013-08-17 06:51:00,57.5,54.3,29.85,SW,230,0.0,0.0,89,0.00,,---,0.00,VWS V14.01,2013-08-17 13:51:00,
2013-08-17 06:56:00,57.3,54.1,29.85,SW,230,0.0,0.0,89,0.00,,---,0.00,VWS V14.01,2013-08-17 13:56:00,
2013-08-17 07:06:00,57.5,54.3,29.85,SW,230,0.0,0.0,89,0.00,,---,0.00,VWS V14.01,2013-08-17 14:06:00,
2013-08-17 07:11:00,57.8,54.9,29.85,SW,230,0.0,0.0,90,0.00,,---,0.00,VWS V14.01,2013-08-17 14:11:00,
2013-08-17 07:21:00,58.1,55.2,29.85,SW,230,0.0,0.0,90,0.00,,---,0.00,VWS V14.01,2013-08-17 14:21:00,
2013-08-17 07:31:00,58.4,55.5,29.85,SW,230,0.0,0.0,90,0.00,,---,0.00,VWS V14.01,2013-08-17 14:31:00,
2013-08-17 07:36:00,58.6,56.0,29.85,SW,230,0.0,0.0,91,0.00,,---,0.00,VWS V14.01,2013-08-17 14:36:00,
2013-08-17 07:46:00,59.3,56.7,29.85,SW,230,0.0,0.0,91,0.00,,---,0.00,VWS V14.01,2013-08-17 14:46:00,
2013-08-17 07:51:00,59.6,57.0,29.85,SW,230,0.0,0.0,91,0.00,,---,0.00,VWS V14.01,2013-08-17 14:51:00,
2013-08-17 08:01:00,60.2,57.9,29.85,SW,230,0.0,0.0,92,0.00,,---,0.00,VWS V14.01,2013-08-17 15:01:00,
2013-08-17 08:11:00,61.6,59.0,29.85,SW,230,0.0,0.0,91,0.00,,---,0.00,VWS V14.01,2013-08-17 15:11:00,
2013-08-17 08:21:00,62.7,60.0,29.85,SW,230,0.0,0.0,91,0.00,,---,0.00,VWS V14.01,2013-08-17 15:21:00,
2013-08-17 08:31:00,64.3,60.7,29.85,SW,230,0.0,0.0,88,0.00,,---,0.00,VWS V14.01,2013-08-17 15:31:00,
2013-08-17 08:36:00,65.2,60.9,29.85,SW,230,0.0,0.0,86,0.00,,---,0.00,VWS V14.01,2013-08-17 15:36:00,
2013-08-17 08:41:00,65.5,60.5,29.85,SW,230,0.0,0.0,84,0.00,,---,0.00,VWS V14.01,2013-08-17 15:41:00,
2013-08-17 08:46:00,65.8,60.5,29.85,SW,230,0.0,0.0,83,0.00,,---,0.00,VWS V14.01,2013-08-17 15:46:00,
2013-08-17 08:51:00,66.1,60.5,29.85,SW,230,0.0,0.0,82,0.00,,---,0.00,VWS V14.01,2013-08-17 15:51:00,
2013-08-17 08:56:00,66.9,60.5,29.85,SW,230,0.0,0.0,80,0.00,,---,0.00,VWS V14.01,2013-08-17 15:56:00,
2013-08-17 09:01:00,67.6,60.9,29.85,SW,230,0.0,0.0,79,0.00,,---,0.00,VWS V14.01,2013-08-17 16:01:00,
2013-08-17 09:11:00,69.3,61.4,29.85,South,182,0.0,0.0,76,0.00,,---,0.00,VWS V14.01,2013-08-17 16:11:00,
2013-08-17 09:16:00,69.8,61.2,29.85,SSW,208,0.0,0.0,74,0.00,,---,0.00,VWS V14.01,2013-08-17 16:16:00,
2013-08-17 09:26:00,71.8,61.1,29.85,WSW,237,0.0,0.0,69,0.00,,---,0.00,VWS V14.01,2013-08-17 16:26:00,
2013-08-17 09:31:00,72.8,59.9,29.85,SSW,192,0.0,0.0,64,0.00,,---,0.00,VWS V14.01,2013-08-17 16:31:00,
2013-08-17 09:36:00,73.9,60.1,29.85,SSW,192,0.0,0.0,62,0.00,,---,0.00,VWS V14.01,2013-08-17 16:36:00,
2013-08-17 09:41:00,74.7,59.4,29.85,SSW,192,0.0,0.0,59,0.00,,---,0.00,VWS V14.01,2013-08-17 16:41:00,
2013-08-17 09:46:00,76.0,61.1,29.84,South,191,0.0,0.0,60,0.00,,---,0.00,VWS V14.01,2013-08-17 16:46:00,
2013-08-17 09:56:00,76.8,60.4,29.84,SSW,195,0.0,0.0,57,0.00,,---,0.00,VWS V14.01,2013-08-17 16:56:00,
2013-08-17 10:01:00,77.9,61.5,29.85,SSW,202,0.0,0.0,57,0.00,,---,0.00,VWS V14.01,2013-08-17 17:01:00,
2013-08-17 10:11:00,78.8,62.3,29.85,South,185,0.0,2.0,57,0.00,,---,0.00,VWS V14.01,2013-08-17 17:11:00,
2013-08-17 10:21:00,79.6,63.0,29.85,South,191,0.0,0.0,57,0.00,,---,0.00,VWS V14.01,2013-08-17 17:21:00,
2013-08-17 10:26:00,80.1,60.9,29.85,SSW,192,0.0,0.0,52,0.00,,---,0.00,VWS V14.01,2013-08-17 17:26:00,
2013-08-17 10:36:00,81.6,60.6,29.84,South,176,0.0,0.0,49,0.00,,---,0.00,VWS V14.01,2013-08-17 17:36:00,
2013-08-17 10:41:00,81.8,58.4,29.84,South,176,0.0,0.0,45,0.00,,---,0.00,VWS V14.01,2013-08-17 17:41:00,
2013-08-17 10:51:00,83.2,60.9,29.84,South,191,0.0,1.0,47,0.00,,---,0.00,VWS V14.01,2013-08-17 17:51:00,
2013-08-17 10:56:00,83.6,61.3,29.84,SW,226,0.0,2.0,47,0.00,,---,0.00,VWS V14.01,2013-08-17 17:56:00,
2013-08-17 11:01:00,84.1,61.1,29.83,SW,230,1.0,2.0,46,0.00,,---,0.00,VWS V14.01,2013-08-17 18:01:00,
2013-08-17 11:06:00,84.0,61.0,29.83,SSE,164,0.0,2.0,46,0.00,,---,0.00,VWS V14.01,2013-08-17 18:06:00,
2013-08-17 11:16:00,84.5,61.5,29.83,South,188,0.0,1.0,46,0.00,,---,0.00,VWS V14.01,2013-08-17 18:16:00,
2013-08-17 11:21:00,85.1,62.0,29.83,West,267,0.0,2.0,46,0.00,,---,0.00,VWS V14.01,2013-08-17 18:21:00,
2013-08-17 11:26:00,85.3,62.8,29.83,SW,232,1.0,2.0,47,0.00,,---,0.00,VWS V14.01,2013-08-17 18:26:00,
2013-08-17 11:36:00,85.9,62.7,29.82,SW,234,0.0,2.0,46,0.00,,---,0.00,VWS V14.01,2013-08-17 18:36:00,
2013-08-17 11:41:00,85.9,62.7,29.82,South,191,0.0,2.0,46,0.00,,---,0.00,VWS V14.01,2013-08-17 18:41:00,
2013-08-17 11:46:00,86.7,62.2,29.82,South,181,0.0,0.0,44,0.00,,---,0.00,VWS V14.01,2013-08-17 18:46:00,
2013-08-17 11:56:00,88.0,61.4,29.82,WSW,239,0.0,1.0,41,0.00,,---,0.00,VWS V14.01,2013-08-17 18:56:00,
2013-08-17 12:01:00,88.4,62.4,29.81,SW,227,0.0,5.0,42,0.00,,---,0.00,VWS V14.01,2013-08-17 19:01:00,
2013-08-17 12:11:00,89.0,61.6,29.81,WSW,253,1.0,3.0,40,0.00,,---,0.00,VWS V14.01,2013-08-17 19:11:00,
2013-08-17 12:21:00,88.6,60.5,29.81,West,267,0.0,5.0,39,0.00,,---,0.00,VWS V14.01,2013-08-17 19:21:00,
2013-08-17 12:26:00,89.7,60.0,29.81,SSW,209,0.0,5.0,37,0.00,,---,0.00,VWS V14.01,2013-08-17 19:26:00,
2013-08-17 12:31:00,89.9,60.2,29.80,WSW,244,0.0,3.0,37,0.00,,---,0.00,VWS V14.01,2013-08-17 19:31:00,
2013-08-17 12:36:00,90.7,59.3,29.80,WSW,250,0.0,5.0,35,0.00,,---,0.00,VWS V14.01,2013-08-17 19:36:00,
2013-08-17 12:46:00,91.0,60.4,29.80,SW,217,0.0,6.0,36,0.00,,---,0.00,VWS V14.01,2013-08-17 19:46:00,
2013-08-17 12:51:00,90.5,60.7,29.80,WSW,241,0.0,8.0,37,0.00,,---,0.00,VWS V14.01,2013-08-17 19:51:00,
2013-08-17 12:56:00,90.7,60.1,29.80,SSW,205,0.0,6.0,36,0.00,,---,0.00,VWS V14.01,2013-08-17 19:56:00,
2013-08-17 13:06:00,90.5,60.7,29.79,SW,223,0.0,10.0,37,0.00,,---,0.00,VWS V14.01,2013-08-17 20:06:00,
2013-08-17 13:16:00,90.1,60.3,29.78,WSW,243,2.0,10.0,37,0.00,,---,0.00,VWS V14.01,2013-08-17 20:16:00,
2013-08-17 13:21:00,90.1,59.6,29.78,SW,227,2.0,8.0,36,0.00,,---,0.00,VWS V14.01,2013-08-17 20:21:00,
2013-08-17 13:26:00,89.7,59.2,29.78,SW,229,0.0,6.0,36,0.00,,---,0.00,VWS V14.01,2013-08-17 20:26:00,
2013-08-17 13:31:00,90.7,59.3,29.78,WSW,254,7.0,7.0,35,0.00,,---,0.00,VWS V14.01,2013-08-17 20:31:00,
2013-08-17 13:36:00,90.7,58.5,29.78,SW,234,1.0,8.0,34,0.00,,---,0.00,VWS V14.01,2013-08-17 20:36:00,
2013-08-17 13:46:00,90.1,59.6,29.78,WSW,247,1.0,7.0,36,0.00,,---,0.00,VWS V14.01,2013-08-17 20:46:00,
2013-08-17 13:51:00,90.7,60.1,29.78,SW,215,0.0,7.0,36,0.00,,---,0.00,VWS V14.01,2013-08-17 20:51:00,
2013-08-17 13:56:00,90.1,58.8,29.78,WSW,246,0.0,8.0,35,0.00,,---,0.00,VWS V14.01,2013-08-17 20:56:00,
2013-08-17 14:01:00,90.5,59.1,29.77,SSW,193,0.0,6.0,35,0.00,,---,0.00,VWS V14.01,2013-08-17 21:01:00,
2013-08-17 14:11:00,89.9,58.6,29.77,SW,232,0.0,12.0,35,0.00,,---,0.00,VWS V14.01,2013-08-17 21:11:00,
2013-08-17 14:16:00,90.3,59.8,29.77,SW,234,0.0,7.0,36,0.00,,---,0.00,VWS V14.01,2013-08-17 21:16:00,
2013-08-17 14:26:00,90.3,59.0,29.77,SSW,205,7.0,10.0,35,0.00,,---,0.00,VWS V14.01,2013-08-17 21:26:00,
2013-08-17 14:36:00,88.4,57.3,29.77,WSW,246,1.0,11.0,35,0.00,,---,0.00,VWS V14.01,2013-08-17 21:36:00,
2013-08-17 14:46:00,88.6,56.7,29.77,West,263,11.0,11.0,34,0.00,,---,0.00,VWS V14.01,2013-08-17 21:46:00,
2013-08-17 14:51:00,88.6,58.2,29.77,WSW,243,5.0,11.0,36,0.00,,---,0.00,VWS V14.01,2013-08-17 21:51:00,
2013-08-17 14:56:00,89.3,57.3,29.77,SW,219,6.0,10.0,34,0.00,,---,0.00,VWS V14.01,2013-08-17 21:56:00,
2013-08-17 15:01:00,89.7,56.8,29.76,South,176,0.0,9.0,33,0.00,,---,0.00,VWS V14.01,2013-08-17 22:01:00,
2013-08-17 15:06:00,89.7,58.4,29.76,WSW,237,0.0,3.0,35,0.00,,---,0.00,VWS V14.01,2013-08-17 22:06:00,
2013-08-17 15:16:00,89.5,57.5,29.75,WSW,239,0.0,8.0,34,0.00,,---,0.00,VWS V14.01,2013-08-17 22:16:00,
2013-08-17 15:26:00,89.7,58.4,29.75,SSW,202,0.0,8.0,35,0.00,,---,0.00,VWS V14.01,2013-08-17 22:26:00,
2013-08-17 15:36:00,89.0,58.6,29.75,SW,217,0.0,10.0,36,0.00,,---,0.00,VWS V14.01,2013-08-17 22:36:00,
2013-08-17 15:41:00,88.8,58.4,29.75,South,179,7.0,10.0,36,0.00,,---,0.00,VWS V14.01,2013-08-17 22:41:00,
2013-08-17 15:46:00,87.4,55.6,29.75,SW,226,0.0,9.0,34,0.00,,---,0.00,VWS V14.01,2013-08-17 22:46:00,
2013-08-17 15:51:00,88.0,57.7,29.75,SW,224,7.0,11.0,36,0.00,,---,0.00,VWS V14.01,2013-08-17 22:51:00,
2013-08-17 15:56:00,88.4,56.5,29.75,SW,236,0.0,10.0,34,0.00,,---,0.00,VWS V14.01,2013-08-17 22:56:00,
2013-08-17 16:06:00,88.8,57.7,29.74,SSW,192,2.0,7.0,35,0.00,,---,0.00,VWS V14.01,2013-08-17 23:06:00,
2013-08-17 16:16:00,87.8,56.8,29.74,SW,222,7.0,8.0,35,0.00,,---,0.00,VWS V14.01,2013-08-17 23:16:00,
2013-08-17 16:21:00,88.0,56.9,29.74,SSW,200,0.0,7.0,35,0.00,,---,0.00,VWS V14.01,2013-08-17 23:21:00,
2013-08-17 16:31:00,88.2,57.1,29.74,WSW,239,0.0,7.0,35,0.00,,---,0.00,VWS V14.01,2013-08-17 23:31:00,
2013-08-17 16:36:00,87.4,57.2,29.74,WSW,256,0.0,2.0,36,0.00,,---,0.00,VWS V14.01,2013-08-17 23:36:00,
2013-08-17 16:41:00,87.0,56.8,29.74,WSW,254,3.0,8.0,36,0.00,,---,0.00,VWS V14.01,2013-08-17 23:41:00,
2013-08-17 16:51:00,86.1,58.3,29.74,WSW,253,0.0,6.0,39,0.00,,---,0.00,VWS V14.01,2013-08-17 23:51:00,
2013-08-17 16:56:00,85.7,57.9,29.74,WSW,256,0.0,2.0,39,0.00,,---,0.00,VWS V14.01,2013-08-17 23:56:00,
2013-08-17 17:01:00,85.3,57.6,29.73,West,261,0.0,7.0,39,0.00,,---,0.00,VWS V14.01,2013-08-18 00:01:00,
2013-08-17 17:11:00,84.7,57.0,29.73,WSW,243,0.0,8.0,39,0.00,,---,0.00,VWS V14.01,2013-08-18 00:11:00,
2013-08-17 17:21:00,84.7,59.1,29.73,WSW,248,0.0,2.0,42,0.00,,---,0.00,VWS V14.01,2013-08-18 00:21:00,
2013-08-17 17:31:00,84.9,58.6,29.73,WSW,240,0.0,5.0,41,0.00,,---,0.00,VWS V14.01,2013-08-18 00:31:00,
2013-08-17 17:36:00,85.3,57.6,29.73,SSW,213,0.0,6.0,39,0.00,,---,0.00,VWS V14.01,2013-08-18 00:36:00,
2013-08-17 17:41:00,85.5,58.5,29.73,SW,226,0.0,8.0,40,0.00,,---,0.00,VWS V14.01,2013-08-18 00:41:00,
2013-08-17 17:51:00,85.7,59.3,29.73,SW,217,0.0,3.0,41,0.00,,---,0.00,VWS V14.01,2013-08-18 00:51:00,
2013-08-17 17:56:00,86.1,59.7,29.73,SSW,208,0.0,1.0,41,0.00,,---,0.00,VWS V14.01,2013-08-18 00:56:00,
2013-08-17 18:01:00,86.1,59.0,29.73,SW,234,0.0,2.0,40,0.00,,---,0.00,VWS V14.01,2013-08-18 01:01:00,
2013-08-17 18:11:00,85.9,59.5,29.73,SW,223,0.0,0.0,41,0.00,,---,0.00,VWS V14.01,2013-08-18 01:11:00,
2013-08-17 18:21:00,85.3,60.3,29.73,SW,226,0.0,0.0,43,0.00,,---,0.00,VWS V14.01,2013-08-18 01:21:00,
2013-08-17 18:31:00,83.6,61.3,29.73,West,260,0.0,0.0,47,0.00,,---,0.00,VWS V14.01,2013-08-18 01:31:00,
2013-08-17 18:36:00,82.4,61.3,29.73,West,260,0.0,0.0,49,0.00,,---,0.00,VWS V14.01,2013-08-18 01:36:00,
2013-08-17 18:46:00,81.1,61.3,29.73,West,260,0.0,0.0,51,0.00,,---,0.00,VWS V14.01,2013-08-18 01:46:00,
2013-08-17 18:51:00,80.5,61.8,29.73,West,260,0.0,0.0,53,0.00,,---,0.00,VWS V14.01,2013-08-18 01:51:00,
2013-08-17 19:01:00,79.6,61.5,29.73,West,260,0.0,0.0,54,0.00,,---,0.00,VWS V14.01,2013-08-18 02:01:00,
2013-08-17 19:06:00,79.0,61.5,29.73,West,260,0.0,0.0,55,0.00,,---,0.00,VWS V14.01,2013-08-18 02:06:00,
2013-08-17 19:16:00,78.1,61.1,29.73,West,260,0.0,0.0,56,0.00,,---,0.00,VWS V14.01,2013-08-18 02:16:00,
2013-08-17 19:26:00,77.6,61.2,29.73,West,260,0.0,0.0,57,0.00,,---,0.00,VWS V14.01,2013-08-18 02:26:00,
2013-08-17 19:36:00,76.8,60.9,29.73,West,260,0.0,0.0,58,0.00,,---,0.00,VWS V14.01,2013-08-18 02:36:00,
2013-08-17 19:46:00,76.0,60.7,29.73,West,260,0.0,0.0,59,0.00,,---,0.00,VWS V14.01,2013-08-18 02:46:00,
2013-08-17 19:51:00,75.6,60.3,29.73,West,260,0.0,0.0,59,0.00,,---,0.00,VWS V14.01,2013-08-18 02:51:00,
2013-08-17 19:56:00,75.1,60.3,29.73,West,260,0.0,0.0,60,0.00,,---,0.00,VWS V14.01,2013-08-18 02:56:00,
2013-08-17 20:01:00,74.7,60.4,29.73,West,260,0.0,0.0,61,0.00,,---,0.00,VWS V14.01,2013-08-18 03:01:00,
2013-08-17 20:11:00,73.9,60.1,29.73,West,260,0.0,0.0,62,0.00,,---,0.00,VWS V14.01,2013-08-18 03:11:00,
2013-08-17 20:16:00,73.5,59.7,29.73,West,260,0.0,0.0,62,0.00,,---,0.00,VWS V14.01,2013-08-18 03:16:00,
2013-08-17 20:21:00,73.2,59.9,29.73,West,260,0.0,0.0,63,0.00,,---,0.00,VWS V14.01,2013-08-18 03:21:00,
2013-08-17 20:26:00,72.8,59.9,29.73,West,260,0.0,0.0,64,0.00,,---,0.00,VWS V14.01,2013-08-18 03:26:00,
2013-08-17 20:31:00,72.3,59.5,29.73,West,260,0.0,0.0,64,0.00,,---,0.00,VWS V14.01,2013-08-18 03:31:00,
2013-08-17 20:41:00,71.5,59.6,29.73,West,260,0.0,0.0,66,0.00,,---,0.00,VWS V14.01,2013-08-18 03:41:00,
2013-08-17 20:51:00,70.8,59.3,29.74,West,260,0.0,0.0,67,0.00,,---,0.00,VWS V14.01,2013-08-18 03:51:00,
2013-08-17 20:56:00,70.4,58.9,29.74,West,260,0.0,0.0,67,0.00,,---,0.00,VWS V14.01,2013-08-18 03:56:00,
2013-08-17 21:01:00,70.1,59.1,29.75,West,260,0.0,0.0,68,0.00,,---,0.00,VWS V14.01,2013-08-18 04:01:00,
2013-08-17 21:06:00,69.6,58.6,29.75,West,260,0.0,0.0,68,0.00,,---,0.00,VWS V14.01,2013-08-18 04:06:00,
2013-08-17 21:16:00,69.1,58.5,29.75,West,260,0.0,0.0,69,0.00,,---,0.00,VWS V14.01,2013-08-18 04:16:00,
2013-08-17 21:21:00,68.6,58.0,29.75,West,260,0.0,0.0,69,0.00,,---,0.00,VWS V14.01,2013-08-18 04:21:00,
2013-08-17 21:31:00,68.1,58.3,29.76,West,260,0.0,0.0,71,0.00,,---,0.00,VWS V14.01,2013-08-18 04:31:00,
2013-08-17 21:36:00,67.6,58.3,29.76,West,260,0.0,0.0,72,0.00,,---,0.00,VWS V14.01,2013-08-18 04:36:00,
2013-08-17 21:41:00,67.3,58.0,29.76,West,260,0.0,0.0,72,0.00,,---,0.00,VWS V14.01,2013-08-18 04:41:00,
2013-08-17 21:46:00,67.1,58.2,29.76,West,260,0.0,0.0,73,0.00,,---,0.00,VWS V14.01,2013-08-18 04:46:00,
2013-08-17 21:51:00,66.8,57.9,29.76,West,260,0.0,0.0,73,0.00,,---,0.00,VWS V14.01,2013-08-18 04:51:00,
2013-08-17 21:56:00,66.6,57.7,29.76,West,260,0.0,0.0,73,0.00,,---,0.00,VWS V14.01,2013-08-18 04:56:00,
2013-08-17 22:06:00,66.1,57.6,29.76,West,260,0.0,0.0,74,0.00,,---,0.00,VWS V14.01,2013-08-18 05:06:00,
2013-08-17 22:11:00,65.8,57.3,29.76,West,260,0.0,0.0,74,0.00,,---,0.00,VWS V14.01,2013-08-18 05:11:00,
2013-08-17 22:21:00,65.3,57.2,29.76,West,260,0.0,0.0,75,0.00,,---,0.00,VWS V14.01,2013-08-18 05:21:00,
2013-08-17 22:26:00,65.0,56.9,29.76,West,260,0.0,0.0,75,0.00,,---,0.00,VWS V14.01,2013-08-18 05:26:00,
2013-08-17 22:31:00,64.8,57.1,29.76,West,260,0.0,0.0,76,0.00,,---,0.00,VWS V14.01,2013-08-18 05:31:00,
2013-08-17 22:36:00,64.7,57.0,29.76,West,260,0.0,0.0,76,0.00,,---,0.00,VWS V14.01,2013-08-18 05:36:00,
2013-08-17 22:41:00,64.3,56.6,29.76,West,260,0.0,0.0,76,0.00,,---,0.00,VWS V14.01,2013-08-18 05:41:00,
2013-08-17 22:46:00,64.2,56.8,29.76,West,260,0.0,0.0,77,0.00,,---,0.00,VWS V14.01,2013-08-18 05:46:00,
2013-08-17 22:51:00,64.0,56.7,29.76,West,260,0.0,0.0,77,0.00,,---,0.00,VWS V14.01,2013-08-18 05:51:00,
2013-08-17 23:01:00,63.5,56.2,29.76,West,260,0.0,0.0,77,0.00,,---,0.00,VWS V14.01,2013-08-18 06:01:00,
2013-08-17 23:06:00,63.4,56.4,29.76,West,260,0.0,0.0,78,0.00,,---,0.00,VWS V14.01,2013-08-18 06:06:00,
2013-08-17 23:16:00,63.1,56.1,29.76,West,260,0.0,0.0,78,0.00,,---,0.00,VWS V14.01,2013-08-18 06:16:00,
2013-08-17 23:21:00,62.7,55.8,29.76,West,260,0.0,0.0,78,0.00,,---,0.00,VWS V14.01,2013-08-18 06:21:00,
2013-08-17 23:31:00,62.4,55.8,29.77,West,260,0.0,0.0,79,0.00,,---,0.00,VWS V14.01,2013-08-18 06:31:00,
2013-08-17 23:36:00,62.4,55.8,29.77,West,260,0.0,0.0,79,0.00,,---,0.00,VWS V14.01,2013-08-18 06:36:00,
2013-08-17 23:46:00,62.1,55.9,29.76,West,260,0.0,0.0,80,0.00,,---,0.00,VWS V14.01,2013-08-18 06:46:00,
2013-08-17 23:51:00,62.0,55.8,29.76,West,260,0.0,0.0,80,0.00,,---,0.00,VWS V14.01,2013-08-18 06:51:00,
2013-08-17 23:56:00,61.8,55.6,29.76,West,260,0.0,0.0,80,0.00,,---,0.00,VWS V14.01,2013-08-18 06:56:00,